Regional Weather Roundup
Issued by NWS

Home | Current Version | Previous Version | Graphics & Text | Print | Product List | Glossary Off
Versions: 1 2 3 4 5 6 7 8 9 10 11 12 13 14 15 16 17 18 19 20 21 22 23 24 25 26 27 28 29 30 31 32 33 34 35 36 37 38 39 40 41 42 43 44 45 46 47 48 49 50

174
ASUS43 KTOP 290208
RWRKS

WEATHER ROUNDUP FOR KANSAS
NATIONAL WEATHER SERVICE GOODLAND KS
900 PM CDT SUN MAY 28 2017

NOTE:  "FAIR" INDICATES FEW OR NO CLOUDS BELOW 12,000 FEET WITH NO
SIGNIFICANT WEATHER AND/OR OBSTRUCTIONS TO VISIBILITY.

KSZ001>006-013>018-027>032-041>047-290300-
NORTHWEST KANSAS

CITY           SKY/WX    TMP DP  RH WIND       PRES   REMARKS
GOODLAND       CLEAR     64  46  52 W6        30.09S
HAYS           CLEAR     69  52  54 W3        30.01S
HILL CITY      CLEAR     69  55  60 SE3       30.02F
RUSSELL        PTCLDY    69  52  54 N8        29.99R
$$

KSZ061>065-074>080-084>089-290300-
SOUTHWEST KANSAS

CITY           SKY/WX    TMP DP  RH WIND       PRES   REMARKS
DODGE CITY     CLEAR     69  43  38 CALM      30.06S
ELKHART          N/A     69  39  33 MISG        N/A
GARDEN CITY    CLEAR     70  39  32 N5        30.08R
GREAT BEND     CLEAR     69  50  50 SW6       30.02S
LIBERAL        CLEAR     69  46  43 NW3       30.10S
PRATT          CLEAR     70  40  34 NW3       30.03S
$$

KSZ066>073-081>083-090>101-290300-
SOUTHEAST KANSAS

CITY           SKY/WX    TMP DP  RH WIND       PRES   REMARKS
CHANUTE        CLEAR     70  49  47 NW5       29.94S
COFFEYVILLE    CLEAR     72  53  51 CALM      29.93F
HUTCHINSON     CLEAR     65  53  65 CALM      29.99S
MEDICINE LODGE   N/A     72  48  42 N5        30.00S
NEWTON         CLEAR     69  49  48 W3        30.00R HAZE
PARSONS        CLEAR     63  54  72 CALM      29.94F
WICHITA INTL   CLEAR     71  46  40 NW7       29.98S
WICHITA JABRA  CLEAR     70  45  40 NW7       29.98S
WICHITA MCCONL CLEAR     74  40  30 N8        29.98S
WINFIELD       CLEAR     70  49  47 NW5       29.97F
$$

KSZ007>012-019>026-033>040-048>060-102>105-290300-
NORTHEAST KANSAS

CITY           SKY/WX    TMP DP  RH WIND       PRES   REMARKS
CONCORDIA      CLEAR     66  53  63 NW5       29.96F
EMPORIA        CLEAR     68  52  56 W5        29.95S
LAWRENCE       CLEAR     71  51  49 SW7       29.90F
MANHATTAN      CLEAR     70  54  56 W5        29.93S
MARYSVILLE     CLEAR     68  46  45 NW3       29.93S
OLATHE IND     CLEAR     70  52  52 SW6       29.91F
OLATHE EXE     CLEAR     69  52  54 CALM      29.91F
SALINA         CLEAR     74  54  49 SW7       29.96F
TOPEKA BILLARD CLEAR     74  52  46 W6        29.90F
TOPEKA FORBES  CLEAR     67  55  65 SW7       29.91F
$$




USA.gov is the U.S. government's official web portal to all federal, state and local government web resources and services.